Location: Miles
(41.4492°N, 81.6087°W)
Time: 21:43:12
(UTC+00:00)

Vanguard 2 Rocket - Pass Details

Date: 21 September 2024
Orbit: 553 x 3298 km, 32.9° (Epoch: 12 October)

Event Time Altitude Azimuth Distance (km) Brightness Sun altitude
Rises 04:53:29 0° 227° (SW) 3,463 - -47.6°
Reaches altitude 10° 04:55:47 10° 218° (SW) 2,768 - -47.7°
Maximum altitude 05:01:57 36° 153° (SSE) 2,062 - -47.9°
Drops below altitude 10° 05:12:04 10° 93° (E) 4,576 - -48.0°
Exits shadow 05:12:18 10° 92° (E) 4,649 10.4 -48.0°
Sets 05:17:03 0° 87° (E) 6,054 11.1 -48.0°
